TimeAKST,TemperatureF,Dew PointF,Humidity,Sea Level PressureIn,VisibilityMPH,Wind Direction,Wind SpeedMPH,Gust SpeedMPH,PrecipitationIn,Events,Conditions,WindDirDegrees,DateUTC
12:53 AM,-14.1,-20.9,71,29.85,10.0,NE,13.8,-,N/A,,Clear,40,2013-02-20 09:53:00
1:53 AM,-9.0,-17.0,68,29.84,10.0,NE,13.8,-,N/A,,Clear,50,2013-02-20 10:53:00
2:53 AM,-13.0,-20.9,68,29.82,10.0,NNE,10.4,-,N/A,,Clear,30,2013-02-20 11:53:00
3:53 AM,-9.0,-18.9,62,29.81,10.0,North,8.1,-,N/A,,Clear,10,2013-02-20 12:53:00
4:53 AM,-16.1,-23.1,71,29.79,10.0,NNE,13.8,-,N/A,,Clear,30,2013-02-20 13:53:00
5:53 AM,-11.9,-18.9,71,29.77,10.0,NNE,17.3,-,N/A,,Clear,20,2013-02-20 14:53:00
6:53 AM,-9.9,-18.0,68,29.74,10.0,NE,21.9,25.3,N/A,,Clear,40,2013-02-20 15:53:00
7:53 AM,-7.1,-14.1,72,29.73,10.0,NNE,25.3,-,N/A,,Clear,30,2013-02-20 16:53:00
8:53 AM,-2.0,-9.9,69,29.73,10.0,NE,21.9,-,N/A,,Clear,50,2013-02-20 17:53:00
9:53 AM,-0.0,-8.0,69,29.72,4.0,ENE,25.3,-,N/A,,Haze,60,2013-02-20 18:53:00
10:53 AM,-0.0,-9.0,66,29.74,9.0,ENE,9.2,-,N/A,,Clear,70,2013-02-20 19:53:00
11:53 AM,1.0,-7.1,69,29.73,10.0,NE,19.6,-,N/A,,Clear,50,2013-02-20 20:53:00
12:53 PM,1.0,-6.0,72,29.73,8.0,NE,18.4,-,N/A,,Clear,40,2013-02-20 21:53:00
1:53 PM,1.9,-6.0,69,29.71,6.0,NE,18.4,-,N/A,,Haze,50,2013-02-20 22:53:00
2:53 PM,-0.0,-8.0,69,29.71,10.0,NNE,18.4,-,N/A,,Clear,30,2013-02-20 23:53:00
3:53 PM,1.0,-8.0,66,29.70,10.0,North,13.8,-,N/A,,Clear,10,2013-02-21 00:53:00
4:53 PM,1.9,-6.0,69,29.70,10.0,NE,13.8,-,N/A,,Clear,50,2013-02-21 01:53:00
5:53 PM,-0.0,-8.0,69,29.71,10.0,Variable,3.5,-,N/A,,Clear,0,2013-02-21 02:53:00
6:53 PM,1.9,-6.0,69,29.70,7.0,NE,21.9,-,N/A,,Clear,50,2013-02-21 03:53:00
7:44 PM,3.2,-5.8,66,29.70,2.5,ENE,24.2,-,N/A,Snow,Blowing Snow,60,2013-02-21 04:44:00
7:51 PM,1.4,-5.8,72,29.69,3.0,ENE,24.2,-,N/A,Snow,Blowing Snow,60,2013-02-21 04:51:00
7:53 PM,1.9,-5.1,72,29.70,3.0,ENE,24.2,-,N/A,Snow,Blowing Snow,60,2013-02-21 04:53:00
8:53 PM,1.9,-5.1,72,29.70,4.0,East,23.0,-,N/A,,Haze,80,2013-02-21 05:53:00
9:53 PM,1.9,-6.0,69,29.69,5.0,ENE,25.3,31.1,N/A,Snow,Blowing Snow,60,2013-02-21 06:53:00
10:01 PM,1.4,-5.8,72,29.68,1.8,ENE,27.6,-,N/A,Snow,Blowing Snow,60,2013-02-21 07:01:00
10:40 PM,1.4,-5.8,72,29.66,0.8,ENE,33.4,-,0.00,Snow,Light Snow,70,2013-02-21 07:40:00
10:49 PM,1.4,-5.8,72,29.67,1.2,ENE,32.2,-,0.00,,Clear,70,2013-02-21 07:49:00
10:53 PM,1.9,-5.1,72,29.66,1.2,ENE,34.5,-,0.00,,Clear,70,2013-02-21 07:53:00
11:46 PM,1.4,-5.8,72,29.67,3.0,ENE,26.5,-,0.00,Snow,Blowing Snow,70,2013-02-21 08:46:00
11:53 PM,1.0,-6.0,72,29.68,2.5,ENE,28.8,-,0.00,Snow,Blowing Snow,70,2013-02-21 08:53:00